DW2050 Weather Reports


time (UTC)temp
C
wind
direction
speed
KPH
gust
KPH
rain 1hr
cm
rain 24hr
cm
rain mn
cm
humidity
%
barometer
mb
20260507094554 11 0 0.0 0.0 0.00 0.00 0.00 77 1021.4
20260507093049 11 0 0.0 0.0 0.00 0.00 0.00 76 1021.4
20260507091554 11 0 0.0 0.0 0.00 0.00 0.00 77 1021.8
20260507090051 11 0 0.0 0.0 0.00 0.00 0.00 77 1021.7
20260507084554 11 0 0.0 1.6 0.00 0.00 0.00 77 1021.6
20260507083057 11 0 0.0 0.0 0.00 0.00 0.00 79 1021.6
20260507081554 11 0 0.0 0.0 0.00 0.00 0.00 80 1021.7
20260507080126 12 0 0.0 0.0 0.00 0.00 0.00 80 1021.5
20260507074603 12 0 0.0 0.0 0.00 0.00 0.00 81 1021.7
20260507073123 12 0 0.0 0.0 0.00 0.00 0.00 81 1021.7
20260507071606 12 0 0.0 1.6 0.00 0.00 0.00 81 1021.5
20260507070057 12 0 0.0 1.6 0.00 0.00 0.00 81 1021.5
20260507064600 12 0 0.0 3.2 0.00 0.00 0.00 81 1021.6
20260507063055 12 0 0.0 4.8 0.00 0.00 0.00 81 1021.6
20260507061556 12 0 0.0 4.8 0.00 0.00 0.00 80 1021.7
20260507060055 12 0 0.0 4.8 0.00 0.00 0.00 80 1021.6
20260507054558 12 0 0.0 0.0 0.00 0.00 0.00 79 1021.6
20260507053056 13 0 0.0 1.6 0.00 0.00 0.00 79 1021.6
20260507051552 13 0 0.0 1.6 0.00 0.00 0.00 79 1021.5
20260507050051 13 0 0.0 4.8 0.00 0.00 0.00 78 1021.6
20260507044551 13 0 0.0 8.0 0.00 0.00 0.00 78 1021.6
20260507043049 13 360 0.0 4.8 0.00 0.00 0.00 77 1021.5
20260507041559 13 0 0.0 3.2 0.00 0.00 0.00 77 1021.4
20260507040100 14 352 0.0 4.8 0.00 0.00 0.00 76 1021.2
20260507034557 15 350 1.6 4.8 0.00 0.00 0.00 75 1021.0
20260507033056 15 0 0.0 4.8 0.00 0.00 0.00 75 1020.8
20260507031556 15 5 0.0 3.2 0.00 0.00 0.00 74 1020.6
20260507030057 16 15 0.0 6.4 0.00 0.00 0.00 74 1020.5
20260507024555 16 0 0.0 4.8 0.00 0.00 0.00 73 1020.3
20260507023055 16 0 0.0 1.6 0.00 0.00 0.00 73 1020.1
20260507021555 16 0 0.0 1.6 0.00 0.00 0.00 73 1020.1
20260507020101 17 17 0.0 4.8 0.00 0.00 0.00 70 1020.2
20260507014603 17 355 0.0 6.4 0.00 0.00 0.00 69 1020.4
20260507013053 18 342 1.6 8.0 0.00 0.00 0.00 68 1020.3
20260507011601 18 333 0.0 6.4 0.00 0.00 0.00 69 1020.2
20260507010050 18 11 1.6 8.0 0.00 0.00 0.00 69 1020.1
20260507004553 18 5 1.6 8.0 0.00 0.00 0.00 69 1020.2
20260507003051 19 360 3.2 9.7 0.00 0.00 0.00 68 1020.0
20260507001613 20 355 0.0 4.8 0.00 0.00 0.00 67 1020.0
20260507000100 20 5 0.0 4.8 0.00 0.00 0.00 67 1020.0
20260506234558 20 0 0.0 4.8 0.00 0.00 0.00 67 1019.9
20260506233052 20 0 0.0 4.8 0.00 0.00 0.00 66 1020.0
20260506231554 20 0 0.0 3.2 0.00 0.00 0.00 66 1020.0
20260506230053 20 0 0.0 3.2 0.00 0.00 0.00 67 1020.3
20260506224550 20 144 0.0 9.7 0.00 0.00 0.00 67 1020.3
20260506223048 20 127 1.6 6.4 0.00 0.00 0.00 65 1020.5
20260506221553 20 0 1.6 8.0 0.00 0.00 0.00 64 1020.6
20260506214552 21 249 0.0 6.4 0.00 0.00 0.00 64 1020.5
20260506213101 20 0 1.6 9.7 0.00 0.00 0.00 67 1020.5
20260506211551 19 210 0.0 6.4 0.00 0.00 0.00 69 1020.8
20260506210107 18 0 0.0 3.2 0.00 0.00 0.00 73 1021.1
20260506204553 17 0 0.0 3.2 0.00 0.00 0.00 76 1020.9
20260506203138 17 0 0.0 1.6 0.00 0.00 0.00 76 1020.8
20260506201552 17 0 0.0 4.8 0.00 0.00 0.00 76 1020.9
20260506200055 16 0 0.0 3.2 0.00 0.00 0.00 77 1021.0
20260506194554 16 0 0.0 4.8 0.00 0.00 0.00 78 1021.1
20260506193057 16 257 0.0 8.0 0.00 0.00 0.00 78 1021.3
20260506191604 16 0 0.0 4.8 0.00 0.00 0.00 79 1021.1
20260506190055 16 0 0.0 4.8 0.00 0.00 0.00 78 1021.1
20260506184600 15 0 0.0 3.2 0.00 0.00 0.00 79 1021.0
20260506183059 15 281 1.6 8.0 0.00 0.00 0.00 79 1020.9
20260506181556 15 0 1.6 11.3 0.00 0.00 0.00 80 1021.1
20260506180057 15 122 0.0 6.4 0.00 0.00 0.00 82 1021.0
20260506174608 14 0 1.6 8.0 0.00 0.00 0.00 82 1021.1
20260506173056 14 0 0.0 4.8 0.00 0.00 0.00 83 1021.0
20260506171605 13 0 1.6 4.8 0.00 0.00 0.00 84 1020.8
20260506170054 13 0 0.0 9.7 0.00 0.00 0.00 85 1020.9
20260506164554 13 0 0.0 1.6 0.00 0.00 0.00 86 1021.0
20260506163121 13 0 0.0 4.8 0.00 0.00 0.00 85 1020.8
20260506161553 13 136 0.0 4.8 0.00 0.00 0.00 86 1020.7
20260506160053 13 0 0.0 1.6 0.00 0.00 0.00 87 1020.6
20260506154555 13 0 0.0 0.0 0.00 0.00 0.00 87 1020.4
20260506153117 12 0 0.0 0.0 0.00 0.00 0.00 87 1020.3
20260506151555 12 0 0.0 0.0 0.00 0.00 0.00 87 1020.7
20260506150056 12 0 0.0 0.0 0.00 0.00 0.00 87 1020.9
20260506144555 12 0 0.0 4.8 0.00 0.00 0.00 86 1020.8
20260506143055 13 0 0.0 0.0 0.00 0.00 0.00 87 1020.6
20260506141549 13 0 0.0 1.6 0.00 0.00 0.00 87 1020.2
20260506140057 13 0 0.0 0.0 0.00 0.00 0.00 87 1020.1
20260506134555 13 0 0.0 0.0 0.00 0.00 0.00 87 1020.1
20260506133052 13 0 0.0 0.0 0.00 0.00 0.00 86 1019.9
20260506131607 13 0 0.0 0.0 0.00 0.00 0.00 86 1019.8
20260506130057 13 0 0.0 1.6 0.00 0.00 0.00 86 1019.6
20260506124558 13 0 0.0 1.6 0.00 0.00 0.00 86 1019.6
20260506123112 13 0 0.0 0.0 0.00 0.00 0.00 85 1019.5
20260506121605 13 0 0.0 0.0 0.00 0.00 0.00 85 1019.6
20260506120055 13 0 0.0 1.6 0.00 0.00 0.00 85 1019.4
20260506114547 13 0 0.0 0.0 0.00 0.00 0.00 85 1019.3
20260506113050 13 0 0.0 0.0 0.00 0.00 0.00 85 1019.2
20260506111552 13 0 0.0 1.6 0.00 0.00 0.00 85 1019.1
20260506110101 13 0 0.0 0.0 0.00 0.00 0.00 85 1018.8
20260506104552 13 0 0.0 0.0 0.00 0.00 0.00 85 1018.6
20260506103051 13 0 0.0 1.6 0.00 0.00 0.00 84 1018.3
20260506101603 13 0 0.0 0.0 0.00 0.00 0.00 84 1018.1
20260506100051 13 0 0.0 0.0 0.00 0.00 0.00 84 1018.2